sat.trackr.live / text

‹ back to catalog

NAPA-2

NORAD 48963 · 2021-059CN

PAYLOAD ACTIVE UNKNOWN

§ Identity

Operator
Country
THAI
Launch date
2021-06-30
Launch site
AFETR
Launch vehicle
Mass (kg)
RCS (m²)

External: N2YO · Heavens-Above · Gunter

§ Orbital elements

Epoch: 2026-07-04T12:35:42.719136Z

Period
88.06 min
Inclination
97.6422°
Eccentricity
0.0009830
Mean motion
16.35251072 rev/d
Perigee alt
172.0 km
Apogee alt
184.9 km
Semi-major
6,556.6 km
B*
7.3507e-4
RAAN
27.5145°
Arg perigee
257.2376°
Mean anomaly
102.7822°
Rev number
28,060

§ Raw data

NAPA-21 48963U 21059CN  26185.52479999  .05428234  26771-5  73507-3 0  99942 48963  97.6422  27.5145 0009830 257.2376 102.7822 16.35251072280608

JSON: /api/v1/satellites/48963 · /tle

For live sub-satellite position, see the globe view (requires WebGL).

§ Visibility from observer

Set your observer location to see the next 7 days of passes ≥ 10°. The values pass through the URL so the page stays shareable.

No JS? Fill the form by hand. The geolocation button needs JavaScript.

§ Radio — SatNOGS DB

ModeDescriptionDownlinkUplink
BPSK UHF 1k2 BPSK Telemetry (inactive) 401.124 MHz

1 transmitter · refreshed weekly from db.satnogs.org